リニア彗星

C/1998 T1 ( LINEAR )

English version
Home page
Updated on May 3, 2000

---------------------------------------------------------------------

・ プロフィール

発見日 1998年10月2日
発見光度 17.6等
発見者 Lincoln Laboratory Near-Earth Asteroid Research project

・ 写真集

・ 軌道要素

   The following improved orbital elements by Kenji Muraoka, are 
  from 321 observations 1998 Oct. 2 to 1999 Dec. 27, perturbations
  by 9 Planets, Moon and 5 minor planets were taken into account.
   The mean residual is +/- 0.75 arc seconds.

      Epoch  =  1999 July  1.0  TT       JDT = 2451360.5
          T  =  1999 June 25.25150       +/- 0.00006 (m.e.) TT
       Peri. =  226.35289                +/- 0.00013
       Node  =  153.35713                +/- 0.00014   (2000.0)
       Incl. =  170.15984                +/- 0.00002
          q  =    1.4677240              +/- 0.0000004 AU
          e  =    0.9991009              +/- 0.0000021
        1/a  =   +0.0006126              +/- 0.0000014 1/AU
  orig. 1/a  =   +0.000558 
  fut.  1/a  =   +0.001457 

・ 星図

・ 光度変化

        m1 = 8.4 + 5 logΔ + 10.0 log r

---------------------------------------------------------------------

軌道要素は村岡健治氏の計算によるものです。
星図は StellaNavigator Ver.2.0 for Windows (アストロアーツ 編著 / アスキー出版局刊) で作成したものです。
光度グラフはComet for Windowsで作成したものです。

---------------------------------------------------------------------

Copyright(C) Seiichi Yoshida (comet@aerith.net). All rights reserved.